period_start,C,m1,H,J0,J1,J2,J3,J4,J5,JA,JB,JC,JD,JJ,JK,JN,#
2018-01-20 00:01:06,0.08,1.16,0.00,20.37,21.20,24.58,14.07,47.80,1026.56,2051.00,3006.48,2750.92,3131.87,599.72,607.22,11.38,0000 0000 0000 0000 000000
2018-01-20 00:06:07,0.08,1.16,0.00,20.38,21.22,24.58,14.15,47.78,1026.50,2051.00,3004.87,2749.91,3130.61,600.18,607.38,11.43,0000 0000 0000 0000 000000
2018-01-20 00:11:08,0.08,1.17,0.00,20.39,21.23,24.58,14.06,47.83,1026.61,2051.00,3003.34,2748.83,3129.30,600.03,607.28,11.48,0000 0000 0000 0000 000000
2018-01-20 00:16:09,0.08,1.17,0.00,20.42,21.25,24.60,14.08,47.79,1026.52,2050.98,3001.67,2747.76,3127.88,600.35,607.44,11.53,0000 0000 0000 0000 000000
2018-01-20 00:21:10,0.11,1.18,0.00,20.43,21.27,24.60,14.03,47.87,1026.42,2050.96,2999.83,2746.39,3126.19,600.16,607.12,11.58,0000 0000 0000 0000 000000
2018-01-20 00:26:11,0.07,1.18,0.00,20.44,21.28,24.62,14.09,47.59,1026.39,2050.94,2998.13,2745.08,3124.64,600.23,607.32,11.63,0000 0000 0000 0000 000000
2018-01-20 00:31:12,0.08,1.18,0.00,20.45,21.29,24.64,14.06,47.73,1026.32,2050.93,2996.66,2744.10,3123.43,599.89,606.84,11.68,0000 0000 0000 0000 000000
2018-01-20 00:36:14,0.05,1.19,0.00,20.50,21.32,24.64,14.09,47.72,1026.37,2050.72,2995.07,2743.10,3122.13,600.11,606.92,11.73,0000 0000 0000 0000 000000
2018-01-20 00:41:15,0.07,1.19,0.00,20.50,21.33,24.67,14.02,47.59,1026.39,2050.48,2993.56,2742.09,3120.86,599.70,606.59,11.79,0000 0000 0000 0000 000000
2018-01-20 00:46:17,0.06,1.19,0.00,20.53,21.34,24.69,14.13,47.51,1026.63,2050.40,2992.05,2741.08,3119.73,600.08,607.06,11.84,0000 0000 0000 0000 000000
2018-01-20 00:51:18,0.06,1.20,0.00,20.56,21.37,24.74,14.11,47.65,1026.84,2050.12,2990.28,2739.97,3118.21,600.31,607.29,11.89,0000 0000 0000 0000 000000
2018-01-20 00:56:19,0.09,1.20,0.00,20.56,21.38,24.72,14.14,47.67,1026.82,2050.04,2988.71,2738.84,3116.88,599.85,606.73,11.94,0000 0000 0000 0000 000000
2018-01-20 01:01:20,0.07,1.21,0.00,20.58,21.39,24.75,14.10,47.63,1026.84,2050.02,2987.17,2737.90,3115.56,600.15,607.11,11.99,0000 0000 0000 0000 000000
2018-01-20 01:06:22,0.07,1.21,0.00,20.61,21.42,24.79,14.13,47.57,1026.70,2050.02,2985.71,2737.02,3114.47,600.54,607.39,12.04,0000 0000 0000 0000 000000
2018-01-20 01:11:23,0.07,1.21,0.00,20.63,21.43,24.77,14.04,47.72,1026.73,2050.00,2984.33,2736.14,3113.38,599.89,606.73,12.09,0000 0000 0000 0000 000000
2018-01-20 01:16:24,0.07,1.22,0.00,20.66,21.45,24.78,14.11,47.75,1026.74,2050.00,2982.81,2735.32,3112.27,600.06,606.85,12.14,0000 0000 0000 0000 000000
2018-01-20 01:21:26,0.07,1.22,0.00,20.67,21.47,24.84,14.18,47.75,1026.83,2050.00,2981.43,2734.39,3111.07,600.29,607.21,12.19,0000 0000 0000 0000 000000
2018-01-20 01:26:27,0.07,1.22,0.00,20.69,21.49,24.84,14.12,47.48,1026.83,2050.00,2979.98,2733.55,3109.88,599.94,606.70,12.24,0000 0000 0000 0000 000000
2018-01-20 01:31:28,0.08,1.23,0.00,20.74,21.51,24.84,14.04,47.45,1026.83,2050.00,2978.53,2732.66,3108.71,599.98,606.63,12.29,0000 0000 0000 0000 000000
2018-01-20 01:36:29,0.05,1.23,0.00,20.75,21.52,24.84,14.04,47.48,1026.86,2049.99,2977.14,2731.88,3107.71,599.95,606.80,12.34,0000 0000 0000 0000 000000
2018-01-20 01:41:30,0.06,1.23,0.00,20.80,21.54,24.88,14.02,47.46,1026.85,2049.99,2975.78,2731.06,3106.63,599.76,606.23,12.39,0000 0000 0000 0000 000000
2018-01-20 01:46:32,0.07,1.24,0.00,20.84,21.57,24.87,14.05,47.44,1026.87,2049.96,2974.22,2730.17,3105.37,600.33,606.81,12.44,0000 0000 0000 0000 000000
2018-01-20 01:51:33,0.07,1.24,0.00,20.86,21.59,24.88,14.02,47.52,1026.85,2049.95,2972.80,2729.40,3104.33,599.98,606.41,12.49,0000 0000 0000 0000 000000
2018-01-20 01:56:34,0.06,1.24,0.00,20.87,21.61,24.92,14.02,47.56,1026.87,2049.93,2971.55,2728.70,3103.30,599.67,606.07,12.54,0000 0000 0000 0000 000000
2018-01-20 02:01:35,0.02,1.25,0.00,20.90,21.63,24.91,14.03,47.67,1026.86,2049.66,2970.17,2727.94,3102.17,599.85,606.20,12.59,0000 0000 0000 0000 000000
2018-01-20 02:06:36,0.05,1.25,0.00,20.92,21.65,24.93,14.04,47.66,1026.79,2049.23,2968.73,2727.06,3101.04,599.60,606.07,12.64,0000 0000 0000 0000 000000
2018-01-20 02:11:37,0.05,1.25,0.00,20.94,21.68,24.95,14.04,47.70,1026.72,2049.04,2967.40,2726.17,3099.95,599.81,605.97,12.69,0000 0000 0000 0000 000000
2018-01-20 02:16:38,0.06,1.25,0.00,20.98,21.69,24.99,13.98,47.67,1026.86,2049.03,2966.03,2725.50,3098.88,599.71,606.00,12.74,0000 0000 0000 0000 000000
2018-01-20 02:21:40,0.06,1.26,0.00,21.02,21.72,24.99,14.07,47.67,1026.86,2049.00,2964.71,2724.79,3097.81,599.96,606.03,12.79,0000 0000 0000 0000 000000
2018-01-20 02:26:41,0.06,1.26,0.00,21.03,21.74,25.01,14.08,47.63,1026.87,2049.00,2963.42,2724.00,3096.78,600.05,606.05,12.84,0000 0000 0000 0000 000000
2018-01-20 02:31:42,0.07,1.26,0.00,21.05,21.76,25.05,14.06,47.55,1026.87,2049.00,2961.97,2723.16,3095.72,600.03,606.17,12.89,0000 0000 0000 0000 000000
2018-01-20 02:36:44,0.07,1.27,0.00,21.08,21.78,25.08,13.99,47.58,1026.90,2048.99,2960.67,2722.46,3094.69,600.07,606.06,12.94,0000 0000 0000 0000 000000
2018-01-20 02:41:45,0.06,1.27,0.00,21.13,21.80,25.11,14.03,47.63,1026.94,2048.98,2959.42,2721.70,3093.58,599.53,605.50,12.99,0000 0000 0000 0000 000000
2018-01-20 02:46:46,0.06,1.27,0.00,21.15,21.82,25.12,14.03,47.68,1026.93,2048.97,2957.90,2720.89,3092.49,600.03,605.83,13.04,0000 0000 0000 0000 000000
2018-01-20 02:51:48,0.06,1.28,0.00,21.17,21.84,25.14,14.08,47.71,1026.95,2048.96,2956.59,2720.08,3091.34,599.87,605.71,13.09,0000 0000 0000 0000 000000
2018-01-20 02:56:49,0.04,1.28,0.00,21.18,21.87,25.16,14.10,47.79,1026.96,2048.82,2955.32,2719.28,3090.34,600.05,605.78,13.14,0000 0000 0000 0000 000000
2018-01-20 03:01:51,0.04,1.28,0.00,21.20,21.89,25.19,14.09,47.67,1027.13,2048.46,2953.96,2718.42,3089.23,600.08,606.12,13.19,0000 0000 0000 0000 000000
2018-01-20 03:06:52,0.04,1.28,0.00,21.22,21.91,25.23,14.07,47.75,1027.15,2048.14,2952.56,2717.64,3088.17,599.97,605.88,13.24,0000 0000 0000 0000 000000
2018-01-20 03:11:53,0.05,1.29,0.00,21.22,21.93,25.23,14.03,47.74,1026.96,2048.07,2951.19,2716.85,3087.03,599.71,605.46,13.29,0000 0000 0000 0000 000000
2018-01-20 03:16:54,0.07,1.29,0.00,21.25,21.95,25.26,14.07,47.72,1026.94,2048.01,2949.71,2716.03,3085.88,599.56,605.22,13.34,0000 0000 0000 0000 000000
2018-01-20 03:21:55,0.06,1.29,0.00,21.27,21.97,25.26,14.08,47.65,1026.97,2048.00,2948.49,2715.19,3084.92,600.32,606.04,13.39,0000 0000 0000 0000 000000
2018-01-20 03:26:57,0.07,1.30,0.00,21.27,21.99,25.30,14.04,47.68,1027.04,2048.00,2947.11,2714.53,3083.87,599.98,605.66,13.44,0000 0000 0000 0000 000000
2018-01-20 03:31:58,0.05,1.30,0.00,21.30,22.02,25.33,14.09,47.63,1027.13,2047.99,2945.72,2713.82,3082.83,600.40,606.09,13.49,0000 0000 0000 0000 000000
2018-01-20 03:36:59,0.06,1.31,0.00,21.34,22.04,25.35,14.08,47.56,1027.02,2047.99,2944.48,2713.05,3081.84,600.18,605.60,13.54,0000 0000 0000 0000 000000
2018-01-20 03:42:00,0.06,1.31,0.00,21.35,22.06,25.34,14.11,47.64,1026.97,2047.97,2943.35,2712.41,3080.87,600.03,605.66,13.59,0000 0000 0000 0000 000000
2018-01-20 03:47:01,0.05,1.31,0.00,21.37,22.08,25.38,14.03,47.69,1026.96,2047.89,2941.96,2711.67,3079.84,600.10,605.48,13.64,0000 0000 0000 0000 000000
2018-01-20 03:52:02,0.04,1.31,0.00,21.38,22.10,25.40,14.07,47.77,1026.90,2047.76,2940.68,2710.91,3078.80,599.91,605.29,13.69,0000 0000 0000 0000 000000
2018-01-20 03:57:04,0.03,1.32,0.00,21.40,22.12,25.43,14.06,47.63,1026.87,2047.42,2939.39,2710.07,3077.78,600.03,605.50,13.74,0000 0000 0000 0000 000000
2018-01-20 04:02:05,0.05,1.32,0.00,21.42,22.14,25.43,14.08,47.59,1026.87,2047.13,2937.96,2709.32,3076.79,599.85,605.00,13.79,0000 0000 0000 0000 000000
2018-01-20 04:07:07,0.06,1.32,0.00,21.44,22.17,25.48,13.96,47.62,1026.87,2047.05,2936.67,2708.70,3075.78,599.99,605.26,13.84,0000 0000 0000 0000 000000
2018-01-20 04:12:08,0.04,1.32,0.00,21.45,22.19,25.48,13.91,47.71,1026.87,2047.01,2935.49,2708.00,3074.85,599.74,604.89,13.89,0000 0000 0000 0000 000000
2018-01-20 04:17:10,0.07,1.33,0.00,21.46,22.21,25.52,14.12,47.72,1026.87,2047.00,2934.14,2707.25,3073.84,600.07,605.35,13.94,0000 0000 0000 0000 000000
2018-01-20 04:22:11,0.06,1.33,0.00,21.48,22.23,25.52,14.08,47.65,1026.87,2047.00,2932.88,2706.67,3072.86,600.23,605.47,13.99,0000 0000 0000 0000 000000
2018-01-20 04:27:13,0.05,1.33,0.00,21.50,22.25,25.57,14.06,47.63,1026.88,2047.00,2931.66,2705.98,3071.93,600.30,605.56,14.04,0000 0000 0000 0000 000000
2018-01-20 04:32:14,0.07,1.34,0.00,21.53,22.28,25.58,14.01,47.73,1026.90,2047.00,2930.42,2705.18,3071.03,600.02,605.08,14.09,0000 0000 0000 0000 000000
2018-01-20 04:37:15,0.05,1.34,0.00,21.54,22.30,25.60,14.04,47.64,1026.88,2047.00,2929.25,2704.70,3070.15,600.04,604.96,14.14,0000 0000 0000 0000 000000
2018-01-20 04:42:16,0.06,1.34,0.00,21.57,22.32,25.63,14.03,47.63,1026.88,2047.00,2927.92,2703.98,3069.22,599.86,604.79,14.20,0000 0000 0000 0000 000000
2018-01-20 04:47:17,0.07,1.35,0.00,21.60,22.34,25.65,14.08,47.65,1026.89,2047.00,2926.60,2703.17,3068.21,600.16,605.05,14.25,0000 0000 0000 0000 000000
2018-01-20 04:52:19,0.06,1.35,0.00,21.60,22.37,25.67,14.01,47.75,1026.97,2047.00,2925.38,2702.47,3067.18,599.85,604.80,14.30,0000 0000 0000 0000 000000
2018-01-20 04:57:20,0.04,1.35,0.00,21.62,22.38,25.72,14.01,47.78,1027.03,2046.98,2924.11,2701.92,3066.23,600.07,605.08,14.35,0000 0000 0000 0000 000000
2018-01-20 05:02:22,0.07,1.35,0.00,21.65,22.41,25.73,14.04,47.77,1026.96,2046.98,2922.85,2701.11,3065.35,600.30,605.16,14.40,0000 0000 0000 0000 000000
2018-01-20 05:07:23,0.06,1.36,0.00,21.69,22.43,25.72,13.99,47.84,1027.04,2046.93,2921.63,2700.53,3064.37,599.88,604.68,14.45,0000 0000 0000 0000 000000
2018-01-20 05:12:24,0.04,1.36,0.00,21.68,22.45,25.75,14.03,47.58,1027.28,2046.84,2920.45,2699.99,3063.58,600.45,605.50,14.50,0000 0000 0000 0000 000000
2018-01-20 05:17:25,0.00,1.36,0.00,21.72,22.47,25.73,14.05,47.81,1027.22,2046.38,2919.23,2699.19,3062.58,599.71,604.55,14.55,0000 0000 0000 0000 000000
2018-01-20 05:22:26,0.04,1.36,0.00,21.75,22.49,25.78,14.07,47.74,1027.32,2046.11,2917.99,2698.78,3061.73,600.20,605.07,14.60,0000 0000 0000 0000 000000
2018-01-20 05:27:28,0.05,1.36,0.00,21.76,22.52,25.85,14.03,47.73,1027.28,2046.04,2916.76,2698.04,3060.80,599.75,604.56,14.65,0000 0000 0000 0000 000000
2018-01-20 05:32:29,0.06,1.37,0.00,21.81,22.54,25.91,14.11,47.87,1027.33,2046.01,2915.52,2697.31,3059.85,600.05,604.73,14.70,0000 0000 0000 0000 000000
2018-01-20 05:37:30,0.07,1.37,0.00,21.84,22.56,25.90,13.98,47.55,1027.33,2046.00,2914.17,2696.67,3058.74,600.12,604.87,14.75,0000 0000 0000 0000 000000
2018-01-20 05:42:32,0.08,1.37,0.00,21.86,22.58,25.89,14.02,47.67,1027.31,2046.00,2912.73,2695.61,3057.45,600.09,604.73,14.80,0000 0000 0000 0000 000000
2018-01-20 05:47:33,0.05,1.38,0.00,21.89,22.61,25.88,14.07,47.72,1027.35,2046.00,2911.50,2694.96,3056.47,600.16,604.76,14.85,0000 0000 0000 0000 000000
2018-01-20 05:52:34,0.06,1.38,0.00,21.91,22.63,25.96,13.97,47.60,1027.35,2045.98,2910.24,2694.19,3055.65,599.93,604.48,14.90,0000 0000 0000 0000 000000
2018-01-20 05:57:35,0.06,1.38,0.00,21.93,22.65,25.97,14.06,47.67,1027.36,2045.97,2908.95,2693.62,3054.66,600.13,604.56,14.95,0000 0000 0000 0000 000000
2018-01-20 06:02:37,0.04,1.39,0.00,21.95,22.67,25.98,13.95,47.73,1027.36,2045.95,2907.84,2692.99,3053.76,599.97,604.45,15.00,0000 0000 0000 0000 000000
2018-01-20 06:07:38,0.03,1.39,0.00,21.97,22.69,25.99,14.00,47.62,1027.36,2045.51,2906.33,2692.08,3052.45,600.11,604.63,15.05,0000 0000 0000 0000 000000
2018-01-20 06:12:39,0.05,1.39,0.00,22.01,22.72,26.03,14.03,47.62,1027.36,2045.15,2904.99,2691.14,3051.50,600.03,604.18,15.10,0000 0000 0000 0000 000000
2018-01-20 06:17:41,0.06,1.39,0.00,22.01,22.74,26.06,14.06,47.61,1027.36,2045.05,2903.75,2690.60,3050.51,600.15,604.48,15.15,0000 0000 0000 0000 000000
2018-01-20 06:22:42,0.04,1.40,0.00,22.04,22.77,26.06,13.97,47.67,1027.36,2045.02,2902.56,2690.00,3049.61,599.97,604.26,15.20,0000 0000 0000 0000 000000
2018-01-20 06:27:43,0.06,1.40,0.00,22.08,22.79,26.06,14.00,47.61,1027.36,2045.01,2901.42,2689.29,3048.78,599.87,604.02,15.25,0000 0000 0000 0000 000000
2018-01-20 06:32:45,0.03,1.40,0.00,22.10,22.81,26.09,14.04,47.58,1027.36,2045.00,2900.27,2688.91,3047.94,600.43,604.51,15.30,0000 0000 0000 0000 000000
2018-01-20 06:37:46,0.06,1.41,0.00,22.14,22.83,26.11,14.00,47.65,1027.35,2045.00,2899.05,2688.08,3047.01,599.69,603.83,15.35,0000 0000 0000 0000 000000
2018-01-20 06:42:47,0.06,1.41,0.00,22.15,22.86,26.12,14.00,47.72,1027.36,2045.00,2897.82,2687.52,3046.08,599.80,603.89,15.40,0000 0000 0000 0000 000000
2018-01-20 06:47:48,0.04,1.41,0.00,22.19,22.88,26.16,14.04,47.75,1027.36,2044.99,2896.70,2687.02,3045.31,600.17,604.12,15.45,0000 0000 0000 0000 000000
2018-01-20 06:52:50,0.06,1.41,0.00,22.22,22.90,26.17,13.97,47.80,1027.36,2044.99,2895.49,2686.56,3044.34,600.00,603.78,15.50,0000 0000 0000 0000 000000
2018-01-20 06:57:51,0.04,1.42,0.00,22.23,22.93,26.20,14.08,47.73,1027.36,2044.99,2894.30,2685.93,3043.49,600.15,604.09,15.55,0000 0000 0000 0000 000000
2018-01-20 07:02:52,0.05,1.42,0.00,22.24,22.95,26.22,14.02,47.68,1027.36,2044.91,2892.98,2685.17,3042.60,599.97,603.92,15.60,0000 0000 0000 0000 000000
2018-01-20 07:07:54,0.03,1.42,0.00,22.28,22.97,26.25,13.98,47.72,1027.37,2044.76,2891.81,2684.73,3041.72,599.90,603.72,15.65,0000 0000 0000 0000 000000
2018-01-20 07:12:55,0.03,1.42,0.00,22.30,22.99,26.28,14.03,47.83,1027.36,2044.43,2890.58,2684.02,3040.79,599.85,603.67,15.70,0000 0000 0000 0000 000000
2018-01-20 07:17:56,0.03,1.43,0.00,22.34,23.02,26.32,13.98,47.75,1027.36,2044.09,2889.38,2683.33,3039.92,599.65,603.33,15.75,0000 0000 0000 0000 000000
2018-01-20 07:22:58,0.06,1.43,0.00,22.36,23.04,26.30,14.02,47.79,1027.36,2044.06,2888.08,2682.79,3038.89,599.90,603.48,15.80,0000 0000 0000 0000 000000
2018-01-20 07:27:59,0.06,1.43,0.00,22.38,23.06,26.30,13.96,47.65,1027.36,2044.00,2886.72,2682.02,3037.85,600.02,603.68,15.85,0000 0000 0000 0000 000000
2018-01-20 07:33:00,0.07,1.43,0.00,22.43,23.09,26.33,14.04,47.71,1027.36,2044.00,2885.39,2681.20,3036.87,600.43,603.78,15.90,0000 0000 0000 0000 000000
2018-01-20 07:38:01,0.04,1.44,0.00,22.45,23.11,26.40,13.98,47.68,1027.38,2044.00,2884.21,2680.79,3035.95,599.95,603.42,15.95,0000 0000 0000 0000 000000
2018-01-20 07:43:03,0.06,1.44,0.00,22.48,23.13,26.38,13.96,47.71,1027.40,2044.00,2882.88,2680.04,3034.98,599.92,603.35,16.00,0000 0000 0000 0000 000000
2018-01-20 07:48:04,0.07,1.44,0.00,22.51,23.16,26.44,13.97,47.66,1027.41,2043.99,2881.53,2679.30,3033.95,599.76,603.13,16.05,0000 0000 0000 0000 000000
2018-01-20 07:53:05,0.05,1.45,0.00,22.52,23.18,26.44,13.94,47.56,1027.53,2043.98,2880.29,2678.78,3033.00,599.86,603.36,16.10,0000 0000 0000 0000 000000
2018-01-20 07:58:07,0.05,1.45,0.00,22.54,23.21,26.47,13.95,47.67,1027.73,2043.94,2879.03,2678.03,3032.03,599.85,603.32,16.15,0000 0000 0000 0000 000000
2018-01-20 08:03:08,0.05,1.45,0.00,22.58,23.23,26.45,13.90,47.73,1027.82,2043.78,2877.72,2677.49,3030.91,599.55,602.99,16.20,0000 0000 0000 0000 000000
2018-01-20 08:08:09,0.06,1.46,0.00,22.60,23.25,26.51,14.01,47.73,1027.82,2043.63,2876.14,2676.44,3029.57,599.70,603.30,16.25,0000 0000 0000 0000 000000
2018-01-20 08:13:10,0.02,1.46,0.00,22.62,23.28,26.56,13.99,47.73,1027.69,2043.19,2874.76,2675.84,3028.52,599.87,603.11,16.30,0000 0000 0000 0000 000000
2018-01-20 08:18:11,0.05,1.46,0.00,22.65,23.30,26.54,13.97,47.77,1027.69,2043.07,2873.50,2675.07,3027.64,599.92,603.16,16.35,0000 0000 0000 0000 000000
2018-01-20 08:23:12,0.06,1.46,0.00,22.66,23.33,26.58,14.02,47.76,1027.81,2043.02,2872.20,2674.54,3026.65,599.91,603.15,16.40,0000 0000 0000 0000 000000
2018-01-20 08:28:14,0.05,1.47,0.00,22.66,23.35,26.66,13.99,47.91,1027.80,2043.00,2870.77,2673.93,3025.58,600.03,603.26,16.45,0000 0000 0000 0000 000000
2018-01-20 08:33:15,0.06,1.47,0.00,22.70,23.37,26.66,13.95,47.88,1027.85,2043.00,2869.51,2673.12,3024.70,599.92,603.25,16.50,0000 0000 0000 0000 000000
2018-01-20 08:38:16,0.04,1.47,0.00,22.73,23.39,26.69,14.00,47.83,1027.85,2043.00,2868.30,2672.78,3023.85,599.56,602.70,16.55,0000 0000 0000 0000 000000
2018-01-20 08:43:17,0.07,1.48,0.00,22.76,23.42,26.73,14.02,47.88,1027.85,2042.99,2866.89,2672.04,3022.76,600.34,603.46,16.60,0000 0000 0000 0000 000000
2018-01-20 08:48:19,0.07,1.48,0.00,22.78,23.44,26.69,13.98,47.80,1027.85,2042.97,2865.43,2671.18,3021.71,600.13,603.35,16.65,0000 0000 0000 0000 000000
2018-01-20 08:53:20,0.06,1.48,0.00,22.79,23.47,26.73,13.93,47.83,1027.85,2042.87,2863.95,2670.20,3020.44,599.84,602.85,16.71,0000 0000 0000 0000 000000
2018-01-20 08:58:21,0.03,1.48,0.00,22.81,23.49,26.78,13.98,47.75,1027.85,2042.65,2862.64,2669.83,3019.46,600.15,603.18,16.76,0000 0000 0000 0000 000000
2018-01-20 09:03:23,0.07,1.49,0.00,22.83,23.52,26.77,13.97,47.89,1027.85,2042.63,2861.48,2669.08,3018.64,600.22,603.18,16.81,0000 0000 0000 0000 000000
2018-01-20 09:08:24,0.02,1.49,0.00,22.85,23.54,26.81,14.00,47.83,1027.85,2042.13,2860.08,2668.45,3017.56,600.05,603.04,16.86,0000 0000 0000 0000 000000
2018-01-20 09:13:25,0.05,1.49,0.00,22.86,23.56,26.80,14.00,47.83,1027.85,2042.01,2858.65,2667.88,3016.59,599.90,602.79,16.91,0000 0000 0000 0000 000000
2018-01-20 09:18:26,0.06,1.49,0.00,22.87,23.58,26.86,13.93,47.77,1027.85,2042.00,2857.37,2667.08,3015.68,600.25,603.14,16.96,0000 0000 0000 0000 000000
2018-01-20 09:23:28,0.07,1.50,0.00,22.89,23.61,26.89,14.00,47.98,1027.84,2042.00,2855.96,2666.46,3014.63,600.19,602.97,17.01,0000 0000 0000 0000 000000
2018-01-20 09:28:29,0.04,1.50,0.00,22.90,23.63,26.91,14.00,47.80,1027.85,2042.00,2854.70,2665.99,3013.74,599.98,602.68,17.06,0000 0000 0000 0000 000000
2018-01-20 09:33:31,0.07,1.50,0.00,22.91,23.66,26.93,13.91,47.92,1027.85,2041.98,2853.38,2665.22,3012.73,599.49,602.22,17.11,0000 0000 0000 0000 000000
2018-01-20 09:38:32,0.06,1.51,0.00,22.96,23.68,26.91,14.09,47.78,1027.86,2041.98,2852.01,2664.62,3011.78,600.26,602.96,17.16,0000 0000 0000 0000 000000
2018-01-20 09:43:33,0.05,1.51,0.00,22.96,23.70,26.95,13.95,47.95,1027.86,2041.93,2850.70,2664.00,3010.76,599.97,602.86,17.21,0000 0000 0000 0000 000000
2018-01-20 09:48:34,0.04,1.51,0.00,23.00,23.72,26.98,13.99,47.94,1027.99,2041.69,2849.36,2663.29,3009.83,599.82,602.66,17.26,0000 0000 0000 0000 000000
2018-01-20 09:53:36,0.03,1.51,0.00,23.02,23.74,27.03,13.96,47.88,1028.03,2041.44,2847.95,2662.81,3008.88,600.15,602.81,17.31,0000 0000 0000 0000 000000
2018-01-20 09:58:37,0.05,1.52,0.00,23.05,23.76,27.06,14.01,47.92,1028.23,2041.34,2846.65,2662.05,3008.03,600.38,603.23,17.36,0000 0000 0000 0000 000000
2018-01-20 10:03:38,0.04,1.52,0.00,23.06,23.79,27.06,14.01,48.02,1028.29,2041.05,2845.38,2661.62,3007.16,600.10,602.87,17.41,0000 0000 0000 0000 000000
2018-01-20 10:08:40,0.04,1.52,0.00,23.09,23.81,27.06,14.02,47.88,1028.33,2041.01,2844.12,2661.01,3006.32,600.00,602.72,17.46,0000 0000 0000 0000 000000
2018-01-20 10:13:41,0.07,1.52,0.00,23.12,23.83,27.10,13.96,47.77,1028.34,2041.00,2842.85,2660.39,3005.48,599.95,602.60,17.51,0000 0000 0000 0000 000000
2018-01-20 10:18:42,0.05,1.53,0.00,23.16,23.86,27.14,13.99,47.97,1028.34,2041.00,2841.57,2659.96,3004.51,600.19,602.72,17.56,0000 0000 0000 0000 000000
2018-01-20 10:23:43,0.07,1.53,0.00,23.16,23.87,27.17,13.97,48.01,1028.34,2041.00,2840.24,2659.13,3003.53,600.08,602.63,17.61,0000 0000 0000 0000 000000
2018-01-20 10:28:45,0.07,1.53,0.00,23.19,23.90,27.18,14.00,47.92,1028.34,2040.97,2838.81,2658.41,3002.39,600.14,602.62,17.66,0000 0000 0000 0000 000000
2018-01-20 10:33:46,0.04,1.54,0.00,23.23,23.92,27.19,13.98,47.97,1028.33,2040.95,2837.49,2657.99,3001.59,599.47,601.89,17.71,0000 0000 0000 0000 000000
2018-01-20 10:38:47,0.05,1.54,0.00,23.25,23.94,27.20,13.96,47.92,1028.33,2040.94,2836.28,2657.27,3000.75,599.74,602.16,17.76,0000 0000 0000 0000 000000
2018-01-20 10:43:48,0.01,1.54,0.00,23.26,23.96,27.24,13.94,47.91,1028.33,2040.68,2834.98,2656.95,2999.92,599.92,602.30,17.81,0000 0000 0000 0000 000000
2018-01-20 10:48:50,0.04,1.54,0.00,23.27,23.99,27.25,13.96,47.86,1028.35,2040.33,2833.72,2656.19,2999.04,599.91,602.38,17.86,0000 0000 0000 0000 000000
2018-01-20 10:53:51,0.02,1.54,0.00,23.29,24.01,27.26,14.03,47.88,1028.41,2040.09,2832.51,2655.91,2998.15,600.53,602.90,17.91,0000 0000 0000 0000 000000
2018-01-20 10:58:52,0.06,1.55,0.00,23.32,24.03,27.30,14.03,47.92,1028.45,2040.01,2831.14,2655.09,2997.23,600.25,602.57,17.96,0000 0000 0000 0000 000000
2018-01-20 11:03:54,0.06,1.55,0.00,23.35,24.05,27.31,13.98,47.88,1028.65,2040.00,2829.83,2654.57,2996.34,599.98,602.48,18.01,0000 0000 0000 0000 000000
2018-01-20 11:08:55,0.04,1.55,0.00,23.38,24.07,27.31,13.94,47.92,1028.63,2040.00,2828.64,2654.02,2995.55,599.85,602.10,18.06,0000 0000 0000 0000 000000
2018-01-20 11:13:56,0.07,1.56,0.00,23.40,24.10,27.34,14.05,47.97,1028.73,2040.00,2827.30,2653.34,2994.50,600.17,602.50,18.11,0000 0000 0000 0000 000000
2018-01-20 11:18:57,0.04,1.56,0.00,23.41,24.12,27.35,13.97,47.92,1028.82,2040.00,2825.94,2652.93,2993.68,599.91,602.20,18.16,0000 0000 0000 0000 000000
2018-01-20 11:23:59,0.08,1.56,0.00,23.45,24.14,27.40,14.00,47.95,1028.82,2039.99,2824.52,2652.08,2992.55,600.21,602.39,18.21,0000 0000 0000 0000 000000
2018-01-20 11:29:00,0.06,1.57,0.00,23.48,24.16,27.40,13.94,47.90,1028.82,2039.98,2823.29,2651.45,2991.75,600.29,602.61,18.26,0000 0000 0000 0000 000000
2018-01-20 11:34:02,0.04,1.57,0.00,23.50,24.19,27.45,13.91,47.95,1028.83,2039.95,2821.91,2650.99,2990.90,599.98,602.17,18.31,0000 0000 0000 0000 000000
2018-01-20 11:39:03,0.05,1.57,0.00,23.52,24.21,27.48,13.98,47.98,1028.84,2039.76,2820.65,2650.33,2990.04,600.03,602.21,18.36,0000 0000 0000 0000 000000
2018-01-20 11:44:04,0.01,1.57,0.00,23.54,24.23,27.48,13.96,47.93,1028.86,2039.48,2819.43,2649.98,2989.18,599.84,602.06,18.41,0000 0000 0000 0000 000000
2018-01-20 11:49:05,0.04,1.57,0.00,23.60,24.25,27.46,13.94,47.96,1028.90,2039.14,2818.21,2649.33,2988.35,599.90,602.01,18.46,0000 0000 0000 0000 000000
2018-01-20 11:54:07,0.03,1.58,0.00,23.63,24.27,27.52,13.97,47.86,1028.85,2039.05,2816.92,2648.98,2987.51,600.13,602.05,18.51,0000 0000 0000 0000 000000
2018-01-20 11:59:08,0.06,1.58,0.00,23.67,24.30,27.56,13.97,47.94,1028.91,2039.02,2815.79,2648.25,2986.75,599.95,601.90,18.56,0000 0000 0000 0000 000000
2018-01-20 12:04:09,0.04,1.58,0.00,23.70,24.32,27.55,13.92,48.19,1029.01,2039.00,2814.55,2647.98,2985.89,599.92,601.74,18.61,0000 0000 0000 0000 000000
2018-01-20 12:09:10,0.06,1.59,0.00,23.72,24.35,27.56,13.86,47.86,1029.29,2039.00,2813.29,2647.22,2985.05,599.43,601.42,18.66,0000 0000 0000 0000 000000
2018-01-20 12:14:11,0.04,1.59,0.00,23.76,24.37,27.56,13.94,47.83,1029.30,2039.00,2812.09,2646.99,2984.24,599.77,601.69,18.71,0000 0000 0000 0000 000000
2018-01-20 12:19:13,0.06,1.59,0.00,23.77,24.40,27.59,13.91,47.91,1029.31,2039.00,2810.85,2646.41,2983.59,599.87,601.79,18.76,0000 0000 0000 0000 000000
2018-01-20 12:24:14,0.04,1.59,0.00,23.82,24.42,27.63,13.94,47.85,1029.32,2038.98,2809.61,2645.99,2982.71,599.62,601.43,18.81,0000 0000 0000 0000 000000
2018-01-20 12:29:15,0.05,1.60,0.00,23.86,24.45,27.68,13.95,47.84,1029.32,2038.97,2808.40,2645.42,2981.92,600.31,602.14,18.86,0000 0000 0000 0000 000000
2018-01-20 12:34:17,0.03,1.60,0.00,23.90,24.47,27.68,13.88,47.79,1029.34,2038.94,2807.11,2644.99,2981.06,599.83,601.53,18.91,0000 0000 0000 0000 000000
2018-01-20 12:39:18,0.02,1.60,0.00,23.92,24.50,27.66,13.97,47.63,1029.35,2038.53,2805.79,2644.28,2980.18,600.04,601.57,18.96,0000 0000 0000 0000 000000
2018-01-20 12:44:19,0.02,1.60,0.00,23.96,24.52,27.67,13.93,47.80,1029.38,2038.19,2804.51,2643.99,2979.46,599.91,601.42,19.01,0000 0000 0000 0000 000000
2018-01-20 12:49:21,0.04,1.60,0.00,24.01,24.55,27.74,13.92,47.77,1029.47,2038.06,2803.50,2643.38,2978.95,600.21,601.83,19.06,0000 0000 0000 0000 000000
2018-01-20 12:54:22,0.04,1.60,0.00,24.01,24.57,27.80,13.94,47.91,1029.61,2038.02,2802.28,2643.00,2978.10,599.73,601.41,19.11,0000 0000 0000 0000 000000